[[{"header":{"parameterUnit":"m.s-1","parameterCategory":1,"la1":30.2991,"la2":30.254,"lo1":-89.0895,"lo2":-89.0444,"dy":0.0017,"dx":0.0017,"nx":28,"ny":28,"refTime":"2023-10-23T03:00:00:Z","depth":0,"parameterNumber":2,"parameterNumberName":"U-component_of_WINDS"},"data":[0,0,0,0,0,0,0,0,0,0,0,0,0,0,0,0,0,0,0,0,0,0,0,0,0,0,0,0,0,0,0,0,0,0,0,0,0,0,0,0,0,0,0,0,0,0,0,0,0,0,0,0,0,0,0,0,0,0,-0.6023,-0.6024,0,-0.6069,-0.607,-0.607,-0.6055,-0.6054,-0.6053,-0.6052,-0.61,-0.6102,-0.6104,0,0,0,0,0,0,0,0,0,0,0,0,0,-0.5924,-0.5926,-0.6023,-0.6024,-0.6024,-0.6069,-0.607,-0.607,-0.6055,-0.6054,-0.6052,-0.6051,-0.6099,-0.6102,-0.6105,0,0,0,0,0,0,0,0,0,0,0,0,0,-0.5968,-0.5926,-0.6023,-0.6022,-0.6022,-0.6069,-0.607,-0.607,-0.6055,-0.6054,-0.6052,-0.6051,-0.6098,-0.6102,-0.6105,-0.6156,0,0,-0.6115,-0.6117,0,0,0,0,0,0,0,0,-0.5966,-0.5972,-0.6022,-0.6022,-0.6023,-0.6055,-0.6052,-0.6099,-0.6055,-0.6043,-0.6052,-0.605,-0.6086,-0.609,-0.6102,-0.6158,-0.616,-0.6115,-0.6117,-0.6119,-0.612,0,0,0,0,0,0,0,-0.5963,-0.597,-0.6041,-0.6022,-0.6023,-0.602,-0.6024,-0.6061,-0.6072,-0.6044,-0.6043,-0.6048,-0.6086,-0.6099,-0.6103,-0.6161,-0.6115,-0.6118,-0.612,-0.6122,-0.6261,-0.6262,0,0,0,0,0,0,-0.5959,-0.5967,-0.604,-0.6043,-0.599,-0.6023,-0.6028,-0.6046,-0.6072,-0.6074,-0.6049,-0.6047,-0.6094,-0.61,-0.6105,-0.6166,-0.6119,-0.6122,-0.6124,-0.6259,-0.6261,-0.6263,0,0,0,0,0,0,-0.5957,-0.5966,-0.6038,-0.6005,-0.6014,-0.6026,-0.6046,-0.6048,-0.6061,-0.6076,-0.6078,-0.6061,-0.6093,-0.61,-0.6143,-0.6168,-0.6123,-0.6126,-0.6257,-0.626,-0.6262,-0.629,0,0,0,0,0,0,-0.5954,-0.5965,-0.5984,-0.6005,-0.6016,-0.6075,-0.6048,-0.605,-0.6066,-0.6064,-0.6087,-0.609,-0.6093,-0.6138,-0.6147,-0.6172,-0.6129,-0.6255,-0.6258,-0.6261,-0.6286,-0.6293,-0.6298,0,0,0,0,0,-0.5951,-0.599,-0.5985,-0.5994,-0.604,-0.6077,-0.6083,-0.6085,-0.6068,-0.6088,-0.6098,-0.6089,-0.6164,-0.6143,-0.6152,-0.6178,-0.6253,-0.6257,-0.6261,-0.6284,-0.6291,-0.6298,0,0,0,0,0,0,-0.5972,-0.5993,-0.5988,-0.6035,-0.6054,-0.6074,-0.6099,-0.6093,-0.6117,-0.6114,-0.6116,-0.6121,-0.6165,-0.6176,-0.6152,-0.6229,-0.6206,-0.6212,-0.6221,-0.6228,-0.6234,-0.623,-0.6132,0,0,0,0,0,-0.5982,-0.601,-0.6027,-0.6067,-0.6077,-0.6086,-0.6102,-0.6102,-0.6122,-0.6131,-0.6144,-0.6164,-0.6192,-0.6211,-0.6237,-0.6288,-0.6293,-0.6311,-0.6316,-0.6321,-0.6326,-0.6354,-0.6362,-0.6275,-0.6275,-0.6275,0,0,-0.6004,-0.6018,-0.6036,-0.6072,-0.6087,-0.6116,-0.6093,-0.6125,-0.6147,-0.6136,-0.6177,-0.6187,-0.621,-0.6257,-0.6278,-0.6267,-0.6351,-0.6326,-0.633,-0.6332,-0.6359,-0.6367,-0.6374,-0.6278,-0.6278,-0.6277,0,0,-0.6057,-0.6071,-0.6107,-0.6122,-0.6144,-0.615,-0.6159,-0.618,-0.6186,-0.6227,-0.6219,-0.6246,-0.6294,-0.631,-0.6325,-0.6386,-0.6379,-0.6394,-0.6425,-0.6452,-0.6459,-0.6465,-0.6487,-0.6494,-0.6399,-0.6399,-0.6399,0,-0.6081,-0.6125,-0.6126,-0.6158,-0.6174,-0.6165,-0.6201,-0.6216,-0.6246,-0.6258,-0.6245,-0.6305,-0.632,-0.6371,-0.6386,-0.6398,-0.6408,-0.6392,-0.6458,-0.6464,-0.6469,-0.649,-0.6498,-0.6401,-0.6401,-0.6401,-0.6401,0,-0.6153,-0.6183,-0.6209,-0.6238,-0.6257,-0.6292,-0.6298,-0.6318,-0.6316,-0.6323,-0.6366,-0.6383,-0.6413,-0.6425,-0.6424,-0.6476,-0.6469,-0.6457,-0.6434,-0.6479,-0.6499,-0.6507,-0.6404,-0.6403,-0.6403,-0.6402,0,0,-0.6222,-0.6251,-0.626,-0.6274,-0.6298,-0.6322,-0.6355,-0.6384,-0.6401,-0.6423,-0.6451,-0.6493,-0.6482,-0.6498,-0.6499,-0.6523,-0.657,-0.6508,-0.6509,-0.6519,-0.6629,-0.6638,-0.6647,-0.6566,-0.6567,-0.6568,-0.6627,0,-0.6278,-0.6337,-0.6339,-0.6393,-0.6421,-0.6413,-0.6443,-0.6461,-0.6469,-0.6494,-0.6503,-0.6532,-0.6516,-0.6526,-0.6549,-0.656,-0.6592,-0.6555,-0.6593,-0.6594,-0.6588,-0.6658,-0.6667,-0.6722,-0.6635,-0.6636,-0.6637,0,-0.6351,-0.6374,-0.6431,-0.6452,-0.6464,-0.649,-0.6517,-0.6541,-0.6562,-0.6566,-0.6585,-0.6583,-0.6618,-0.6593,-0.6642,-0.6617,-0.6633,-0.664,-0.6642,-0.6646,-0.6619,-0.6663,-0.674,-0.6748,-0.6649,-0.6648,-0.6647,0,-0.6396,-0.6441,-0.6481,-0.6493,-0.6518,-0.6537,-0.6548,-0.6567,-0.6585,-0.6609,-0.662,-0.6648,-0.6663,-0.6685,-0.669,-0.6671,-0.6739,-0.6715,-0.6743,-0.6743,-0.6758,-0.6757,-0.6838,-0.6768,-0.6768,-0.6768,-0.6767,0,-0.6458,-0.6494,-0.6502,-0.6527,-0.6566,-0.6568,-0.6607,-0.6617,-0.6635,-0.6661,-0.6656,-0.6681,-0.6686,-0.6713,-0.6717,-0.6757,-0.6764,-0.6769,-0.6769,-0.6769,-0.6769,-0.678,-0.6776,-0.677,-0.6769,-0.6769,-0.6768,0,-0.6515,-0.6522,-0.6565,-0.6585,-0.6591,-0.6619,-0.6636,-0.666,-0.6667,-0.6701,-0.671,-0.6721,-0.6752,-0.6759,-0.6796,-0.6799,-0.6847,-0.6844,-0.6839,-0.6839,-0.6868,-0.6865,-0.6958,-0.6971,-0.6893,-0.6893,-0.6894,0,-0.6555,-0.6581,-0.6604,-0.6622,-0.6634,-0.6662,-0.6679,-0.6683,-0.6702,-0.6727,-0.6748,-0.6779,-0.6803,-0.6853,-0.6865,-0.6894,-0.6891,-0.6922,-0.6896,-0.6895,-0.6892,-0.689,-0.6893,-0.6927,-0.6928,-0.6929,-0.6929,0,-0.6624,-0.6626,-0.6652,-0.6679,-0.67,-0.6721,-0.6742,-0.6756,-0.6763,-0.6784,-0.6815,-0.6834,-0.6872,-0.6902,-0.6931,-0.6943,-0.6938,-0.6938,-0.6946,-0.6946,-0.6943,-0.6945,-0.6853,-0.6935,-0.6935,-0.6934,-0.6934,-0.6934,-0.6674,-0.6697,-0.6717,-0.6746,-0.6761,-0.6781,-0.6804,-0.6814,-0.684,-0.6871,-0.6871,-0.6906,-0.6926,-0.6964,-0.6978,-0.7005,-0.6996,-0.7008,-0.7011,-0.7013,-0.7016,-0.6938,-0.701,-0.701,-0.701,-0.701,-0.701,0,-0.6743,-0.6755,-0.6782,-0.681,-0.6833,-0.6825,-0.6848,-0.6867,-0.6898,-0.6917,-0.6941,-0.6978,-0.7007,-0.7021,-0.7051,-0.707,-0.7068,-0.7077,-0.7076,-0.7079,-0.7023,-0.7013,-0.7078,-0.7078,-0.7078,-0.7078,-0.7078,-0.7078,-0.6782,-0.6822,-0.6826,-0.6874,-0.6886,-0.6919,-0.6933,-0.695,-0.6966,-0.7007,-0.7031,-0.704,-0.7057,-0.7088,-0.7115,-0.7118,-0.7129,-0.714,-0.7142,-0.709,-0.7083,-0.7076,-0.7067,-0.7142,-0.7143,-0.7196,-0.7197,-0.7197]},{"header":{"parameterUnit":"m.s-1","parameterCategory":1,"la1":30.2991,"la2":30.254,"lo1":-89.0895,"lo2":-89.0444,"dy":0.0017,"dx":0.0017,"nx":28,"ny":28,"refTime":"2023-10-23T03:00:00:Z","depth":0,"parameterNumber":3,"parameterNumberName":"V-component_of_WINDS"},"data":[0,0,0,0,0,0,0,0,0,0,0,0,0,0,0,0,0,0,0,0,0,0,0,0,0,0,0,0,0,0,0,0,0,0,0,0,0,0,0,0,0,0,0,0,0,0,0,0,0,0,0,0,0,0,0,0,0,0,-0.673,-0.673,0,-0.676,-0.676,-0.676,-0.677,-0.677,-0.677,-0.677,-0.6801,-0.6802,-0.6803,0,0,0,0,0,0,0,0,0,0,0,0,0,-0.6682,-0.6683,-0.673,-0.673,-0.6731,-0.676,-0.676,-0.676,-0.677,-0.677,-0.677,-0.677,-0.68,-0.6802,-0.6803,0,0,0,0,0,0,0,0,0,0,0,0,0,-0.6706,-0.6683,-0.673,-0.6739,-0.674,-0.676,-0.676,-0.6761,-0.677,-0.677,-0.677,-0.677,-0.68,-0.6801,-0.6803,-0.6815,0,0,-0.6807,-0.6808,0,0,0,0,0,0,0,0,-0.6705,-0.6708,-0.6738,-0.6739,-0.674,-0.6761,-0.6754,-0.6779,-0.677,-0.6759,-0.677,-0.677,-0.6788,-0.679,-0.6796,-0.6816,-0.6818,-0.6807,-0.6808,-0.6809,-0.6809,0,0,0,0,0,0,0,-0.6703,-0.6707,-0.6742,-0.6738,-0.6739,-0.6742,-0.6745,-0.6759,-0.6774,-0.676,-0.6761,-0.6764,-0.6788,-0.6795,-0.6797,-0.6818,-0.6807,-0.6808,-0.6809,-0.681,-0.685,-0.685,0,0,0,0,0,0,-0.67,-0.6705,-0.6741,-0.6743,-0.6722,-0.6743,-0.6747,-0.6755,-0.6774,-0.6777,-0.6764,-0.6765,-0.6792,-0.6795,-0.6798,-0.6813,-0.6809,-0.681,-0.6811,-0.6849,-0.685,-0.685,0,0,0,0,0,0,-0.6699,-0.6703,-0.674,-0.6724,-0.6729,-0.6744,-0.6753,-0.6755,-0.6762,-0.6777,-0.678,-0.6768,-0.6792,-0.6796,-0.6811,-0.6815,-0.6811,-0.6812,-0.6849,-0.6849,-0.685,-0.6844,0,0,0,0,0,0,-0.6698,-0.6703,-0.6708,-0.6724,-0.673,-0.6752,-0.6753,-0.6756,-0.6764,-0.6764,-0.6781,-0.6784,-0.6793,-0.6808,-0.6812,-0.6816,-0.6813,-0.6849,-0.6849,-0.685,-0.6844,-0.6844,-0.6844,0,0,0,0,0,-0.6696,-0.6705,-0.6708,-0.6712,-0.6736,-0.6752,-0.6755,-0.6765,-0.6764,-0.6769,-0.6779,-0.6783,-0.6813,-0.681,-0.6814,-0.6819,-0.6849,-0.6849,-0.685,-0.6844,-0.6844,-0.6844,0,0,0,0,0,0,-0.6688,-0.6707,-0.6711,-0.6725,-0.6737,-0.6754,-0.676,-0.6765,-0.6777,-0.6777,-0.6788,-0.6792,-0.6805,-0.6814,-0.6809,-0.6831,-0.6831,-0.6833,-0.6826,-0.6826,-0.6826,-0.6824,-0.6814,0,0,0,0,0,-0.6688,-0.6699,-0.6715,-0.6727,-0.6733,-0.6745,-0.6752,-0.6759,-0.6771,-0.6776,-0.6787,-0.6799,-0.6811,-0.6819,-0.6831,-0.6845,-0.6849,-0.6851,-0.6851,-0.6851,-0.6852,-0.686,-0.686,-0.6852,-0.6852,-0.6852,0,0,-0.6689,-0.67,-0.6707,-0.6726,-0.6735,-0.6747,-0.6749,-0.6761,-0.677,-0.6778,-0.6792,-0.6801,-0.6815,-0.6829,-0.6836,-0.6836,-0.6855,-0.6851,-0.6851,-0.6852,-0.686,-0.6861,-0.6862,-0.6852,-0.6852,-0.6852,0,0,-0.6695,-0.6705,-0.6715,-0.6725,-0.6739,-0.6748,-0.675,-0.6766,-0.6772,-0.6786,-0.6793,-0.6803,-0.6824,-0.6834,-0.6841,-0.685,-0.6855,-0.6854,-0.6855,-0.6862,-0.6863,-0.6864,-0.6867,-0.6868,-0.6855,-0.6855,-0.6855,0,-0.6693,-0.671,-0.672,-0.6731,-0.674,-0.6747,-0.6758,-0.6767,-0.6785,-0.679,-0.679,-0.6816,-0.6826,-0.6843,-0.6845,-0.6851,-0.6854,-0.6852,-0.6862,-0.6863,-0.6864,-0.6867,-0.6868,-0.6855,-0.6855,-0.6855,-0.6855,0,-0.6707,-0.6719,-0.6726,-0.6743,-0.6752,-0.6762,-0.6774,-0.6782,-0.6787,-0.6795,-0.681,-0.6822,-0.6837,-0.6841,-0.6847,-0.6858,-0.6858,-0.686,-0.686,-0.6864,-0.6867,-0.6869,-0.6854,-0.6855,-0.6855,-0.6855,0,0,-0.671,-0.6732,-0.6734,-0.6741,-0.6758,-0.6767,-0.6778,-0.6792,-0.6799,-0.6811,-0.682,-0.6837,-0.6839,-0.6848,-0.6854,-0.6861,-0.6867,-0.6862,-0.6863,-0.6863,-0.688,-0.6879,-0.688,-0.687,-0.687,-0.6871,-0.6879,0,-0.6718,-0.6738,-0.6747,-0.6764,-0.6774,-0.6782,-0.6792,-0.6803,-0.6811,-0.6821,-0.683,-0.6842,-0.6843,-0.6849,-0.6855,-0.6865,-0.6871,-0.6864,-0.6879,-0.688,-0.6875,-0.6882,-0.688,-0.6887,-0.688,-0.6881,-0.6881,0,-0.673,-0.6742,-0.6759,-0.6774,-0.6779,-0.6788,-0.6801,-0.6811,-0.6823,-0.6829,-0.6838,-0.6844,-0.6856,-0.6855,-0.6872,-0.6867,-0.6874,-0.6879,-0.688,-0.6882,-0.688,-0.6883,-0.689,-0.6891,-0.6883,-0.6883,-0.6883,0,-0.673,-0.675,-0.6763,-0.6769,-0.6787,-0.6793,-0.68,-0.6813,-0.6821,-0.6832,-0.6837,-0.685,-0.6857,-0.6867,-0.6877,-0.6875,-0.6892,-0.6892,-0.6897,-0.6896,-0.69,-0.69,-0.6908,-0.6904,-0.6904,-0.6904,-0.6904,0,-0.6738,-0.6748,-0.6763,-0.6771,-0.6782,-0.6793,-0.6804,-0.6812,-0.6823,-0.6832,-0.684,-0.6849,-0.6861,-0.6871,-0.6878,-0.6891,-0.6894,-0.6898,-0.69,-0.6898,-0.6897,-0.6902,-0.6902,-0.6905,-0.6904,-0.6904,-0.6904,0,-0.674,-0.675,-0.6764,-0.678,-0.6784,-0.6792,-0.6805,-0.6813,-0.6821,-0.6833,-0.6837,-0.6849,-0.6862,-0.6872,-0.6889,-0.6894,-0.6906,-0.6909,-0.6902,-0.6903,-0.6907,-0.6906,-0.6919,-0.6921,-0.6916,-0.6916,-0.6916,0,-0.6744,-0.6752,-0.6768,-0.6775,-0.6783,-0.6794,-0.6802,-0.6812,-0.682,-0.6835,-0.6841,-0.6853,-0.6864,-0.6884,-0.6895,-0.6907,-0.691,-0.6913,-0.6912,-0.6909,-0.6909,-0.6909,-0.691,-0.6913,-0.6913,-0.6913,-0.6913,0,-0.6751,-0.6755,-0.6766,-0.6779,-0.6788,-0.6799,-0.681,-0.6815,-0.6827,-0.6835,-0.6848,-0.6857,-0.6873,-0.6886,-0.6899,-0.6907,-0.6912,-0.6913,-0.6915,-0.6913,-0.6908,-0.691,-0.6902,-0.6913,-0.6913,-0.6913,-0.6913,-0.6913,-0.6754,-0.6761,-0.6774,-0.6786,-0.6795,-0.6805,-0.6813,-0.6822,-0.6833,-0.6847,-0.6852,-0.6865,-0.6877,-0.6896,-0.6904,-0.6914,-0.6915,-0.6917,-0.6918,-0.6918,-0.6918,-0.6907,-0.6916,-0.6916,-0.6916,-0.6916,-0.6916,0,-0.6761,-0.6769,-0.678,-0.6795,-0.6804,-0.6808,-0.682,-0.6828,-0.6839,-0.685,-0.686,-0.6874,-0.6887,-0.6898,-0.6911,-0.6917,-0.6919,-0.692,-0.692,-0.6921,-0.6916,-0.6914,-0.6918,-0.6918,-0.6918,-0.6918,-0.6918,-0.6918,-0.6766,-0.6778,-0.6784,-0.6801,-0.681,-0.6822,-0.6829,-0.6838,-0.6847,-0.6862,-0.6872,-0.688,-0.6891,-0.6904,-0.6916,-0.6919,-0.6923,-0.6923,-0.6926,-0.6922,-0.6922,-0.6921,-0.6919,-0.6924,-0.6924,-0.693,-0.693,-0.6931]}]]